Simultaneous Nadir Overpasses (SNOs) Predictions

Prediction of SNOs near equator between AQUA and NPP Satellite Orbit:

Table of predicted SNOs near equator for the next 14.0 days since TLE Epoch: 2/17/2014
Index Date (AQUA) Time (AQUA) AQUA Lat,Lon Date (NPP) Time (NPP) NPP Lat,Lon Distance(km) Time Diff (sec)
1 02/19/2014 22:37:49 -29.94, 39.81 02/19/2014 22:28:15 -29.94, 39.94 12.96 574
2 02/19/2014 23:23:29 16.06,-149.23 02/19/2014 23:15:07 16.06,-149.23 0.23 502
3 02/20/2014 00:07:22 3.82, 22.72 02/20/2014 00:00:09 3.82, 22.63 9.96 433
4 02/20/2014 00:55:37 -8.41,-168.67 02/20/2014 00:49:39 -8.50,-169.02 39.00 358
5 02/20/2014 01:43:45 12.89, -0.04 02/20/2014 01:39:02 13.05, -0.64 67.12 283
6 02/20/2014 02:31:59 -17.52, 168.62 02/20/2014 02:28:32 -17.71, 167.76 93.44 207
7 02/22/2014 14:54:18 -29.91, 155.70 02/22/2014 14:45:12 -29.91, 155.73 2.88 546
8 02/22/2014 15:37:31 7.16, -31.40 02/22/2014 15:29:33 7.16, -31.40 0.14 478
9 02/22/2014 16:23:24 5.48, 138.96 02/22/2014 16:16:38 5.51, 138.79 19.31 406
10 02/22/2014 17:11:39 -10.07, -52.43 02/22/2014 17:06:08 -10.18, -52.86 48.20 331
11 02/22/2014 17:59:46 14.61, 116.22 02/22/2014 17:55:31 14.73, 115.53 75.75 255
12 02/25/2014 06:21:25 29.98, 103.91 02/25/2014 06:11:30 30.01, 104.15 22.83 595
13 02/25/2014 07:09:07 -23.92, -86.91 02/25/2014 07:00:27 -23.92, -86.91 0.42 520
14 02/25/2014 07:51:18 -2.61, 86.58 02/25/2014 07:43:44 -2.63, 86.58 1.59 454
15 02/25/2014 08:39:26 7.10,-104.81 02/25/2014 08:33:07 7.18,-105.06 29.14 379
16 02/25/2014 09:27:40 -11.74, 63.82 02/25/2014 09:22:37 -11.85, 63.30 57.45 303
17 02/25/2014 10:15:48 16.22,-127.53 02/25/2014 10:12:00 16.40,-128.30 84.45 228
18 02/27/2014 22:37:53 29.98,-140.20 02/27/2014 22:28:27 29.99,-140.07 12.30 566
19 02/27/2014 23:23:01 -14.65, 31.12 02/27/2014 23:14:46 -14.65, 31.13 1.35 495
20 02/28/2014 00:07:18 -4.30,-157.17 02/28/2014 00:00:12 -4.35,-157.25 10.16 426
21 02/28/2014 00:55:25 8.84, 11.46 02/28/2014 00:49:35 8.90, 11.11 38.80 350
22 02/28/2014 01:43:39 -13.42,-179.92 02/28/2014 01:39:04 -13.56, 179.48 66.81 275
23 02/28/2014 02:31:46 17.96, -11.24 02/28/2014 02:28:27 18.12, -12.11 93.08 199
24 03/02/2014 14:04:49 -29.98, 168.07 03/02/2014 13:54:49 -30.83, 168.17 95.56 600
25 03/02/2014 14:54:19 29.97, -24.30 03/02/2014 14:45:23 29.99, -24.29 1.83 536
26 03/02/2014 15:37:04 -6.01, 148.90 03/02/2014 15:29:15 -6.01, 148.90 0.12 469
27 03/02/2014 16:23:15 -6.06, -40.91 03/02/2014 16:16:38 -6.12, -41.08 19.94 397
28 03/02/2014 17:11:22 10.60, 127.73 03/02/2014 17:06:01 10.67, 127.29 48.69 321
29 03/02/2014 17:59:37 -15.18, -63.64 03/02/2014 17:55:31 -15.33, -64.33 76.06 246




NCC Satellite Simultaneous Nadir Overpasses (SNOs) Prediction Service
